User: anonymous   Login
Location: Byszew
(52.1813°N, 19.2693°E)
Time: 11:34:32
(UTC+00:00)
Language:

Transit 4A - Orbit

View from above orbital plane
View from above orbital plane
View from above satellite
View from above satellite

Ground track
Ground track

The orbit data is extracted from the following two-line orbital elements,

1 00116U 61015A   22147.80130803  .00000028  00000-0  80558-4 0  9990
2 00116  66.8100 274.0648 0081294 234.8556 124.4888 13.91830058 90517
Epoch (UTC): 27 May 2022 19:13:53
Eccentricity: 0.0081294
inclination: 66.8100°
perigee height: 863 km
apogee height: 981 km
right ascension of ascending node: 274.0648°
argument of perigee: 234.8556°
revolutions per day: 13.91830058
mean anomaly at epoch: 124.4888°
orbit number at epoch: 9051

The dashed part of the orbit path shows where the satellite is in the earth's shadow,  

DLR